This is the latest recevied weather packets stored in our database for station/object KK4KTV-13. If no packets are shown the sender has not sent any weather packets the latest 10 day(s).
| Time | Temp. | Humidity | Pressure | Rain* | Wind** | Luminosity | Snow |
|---|---|---|---|---|---|---|---|
| 1778060053 | 16.11° C | 99% | 1007 hPa | 1.78 mm | - | 0 W/m² | - |
| 1778059751 | 16.11° C | 99% | 1007 hPa | 0 mm | - | 0 W/m² | - |
| 1778059449 | 16.11° C | 99% | 1006.7 hPa | 1.27 mm | - | 0 W/m² | - |
| 1778059144 | 16.11° C | 99% | 1006.5 hPa | 3.05 mm | - | 0 W/m² | - |
| 1778058843 | 16.11° C | 99% | 1007 hPa | 1.78 mm | - | 0 W/m² | - |
| 1778058540 | 16.11° C | 99% | 1007 hPa | 3.05 mm | - | 0 W/m² | - |
| 1778058238 | 16.11° C | 99% | 1007.3 hPa | 10.67 mm | - | 0 W/m² | - |
| 1778057934 | 16.11° C | 99% | 1007.1 hPa | 10.67 mm | - | 0 W/m² | - |
| 1778057630 | 16.11° C | 99% | 1006.8 hPa | 1.78 mm | - | 0 W/m² | - |
| 1778057327 | 16.11° C | 99% | 1006.5 hPa | 0 mm | - | 0 W/m² | - |
| 1778057024 | 16.11° C | 99% | 1006.1 hPa | 0 mm | - | 0 W/m² | - |
| 1778056720 | 16.11° C | 99% | 1006.1 hPa | 0 mm | - | 0 W/m² | - |
| 1778056418 | 16.11° C | 99% | 1006 hPa | 0 mm | - | 0 W/m² | - |
| 1778056115 | 16.11° C | 99% | 1005.8 hPa | 0 mm | - | 0 W/m² | - |
| 1778055811 | 16.11° C | 99% | 1005.8 hPa | 0 mm | - | 0 W/m² | - |
| 1778055508 | 16.11° C | 99% | 1005.7 hPa | 0 mm | - | 0 W/m² | - |
| 1778055206 | 16.11° C | 99% | 1005.5 hPa | 0 mm | - | 0 W/m² | - |
| 1778054903 | 16.11° C | 99% | 1005.5 hPa | 0 mm | - | 0 W/m² | - |
| 1778054599 | 16.11° C | 99% | 1005.6 hPa | 0 mm | - | 0 W/m² | - |
| 1778054297 | 16.11° C | 99% | 1005.4 hPa | 0 mm | - | 0 W/m² | - |
| 1778053995 | 16.11° C | 99% | 1005.3 hPa | 0 mm | - | 0 W/m² | - |
| 1778053691 | 16.11° C | 99% | 1005.3 hPa | 0 mm | - | 0 W/m² | - |
| 1778053389 | 16.11° C | 99% | 1005.7 hPa | 0 mm | - | 0 W/m² | - |
| 1778053086 | 16.11° C | 98% | 1005.2 hPa | 0 mm | - | 0 W/m² | - |
| 1778052784 | 16.11° C | 98% | 1005 hPa | 0 mm | - | 0 W/m² | - |
* Rain latest hour (hover to see other rain measurements)
** Current wind speed in m/s (hover to see current wind gust speed)